This demonstration page uses our WeatherBlox Daily Observations layout. Learn more.

Left ArrowRight Arrow

40.92945, -100.16068

Hourly Observations for November 3, 2018

Temp ( °F °C ) Dew Point ( °F °C ) Humidity (%) Winds ( mph kmh ) Pressure ( in mb ) Visibility ( mi km ) Precip ( " mm )
12:15 am 00:15 Cloudy 42 5.5 35 1.9 78 78 SE 16 26 29.74 1007 10 16.0934 0 0
12:35 am 00:35 Cloudy 42 5.4 36 2 79 79 SE 13 20 29.74 1007 10 16.0934 0 0
12:55 am 00:55 Cloudy 41 5.2 36 2 80 80 SE 12 19 29.74 1007 10 16.0934 0 0
1:15 am 01:15 Partly Cloudy 41 5 36 2.1 82 82 SE 8 13 29.77 1008 10 16.0934 0 0
1:35 am 01:35 Clear 41 4.9 36 2.1 82 82 SE 8 13 29.74 1007 10 16.0934 0 0
1:55 am 01:55 Mostly Cloudy 41 5.2 36 2 80 80 SE 10 17 29.74 1007 10 16.0934 0 0
2:15 am 02:15 Mostly Cloudy 41 4.8 35 1.8 81 81 SE 12 19 29.74 1007 10 16.0934 0 0
2:35 am 02:35 Mostly Cloudy 41 4.8 36 2 82 82 ESE 8 13 29.74 1007 10 16.0934 0 0
2:55 am 02:55 Cloudy 41 4.8 36 2.1 83 83 ESE 12 19 29.74 1007 10 16.0934 0 0
3:15 am 03:15 Cloudy 40 4.5 36 2 84 84 SE 10 17 29.74 1007 10 16.0934 0 0
3:35 am 03:35 Cloudy 40 4.6 36 2 83 83 SE 10 17 29.74 1007 10 16.0934 0 0
3:55 am 03:55 Cloudy with Light Rain 41 4.8 36 2 82 82 SE 13 20 29.71 1006 10 16.0934 0 0
4:15 am 04:15 Cloudy with Drizzle 40 4.7 36 2.2 84 84 SE 8 13 29.71 1006 10 16.0934 0 0
4:35 am 04:35 Cloudy 40 4.6 36 2.2 85 85 SE 7 11 29.71 1006 10 16.0934 0 0
4:55 am 04:55 Cloudy 40 4.7 36 2.2 84 84 E 5 7 29.74 1007 10 16.0934 0 0
5:15 am 05:15 Cloudy 39 4 36 2 87 87 ENE 5 7 29.74 1007 10 16.0934 0 0
5:35 am 05:35 Cloudy 39 4 37 2.5 90 90 NE 7 11 29.74 1007 10 16.0934 0 0
5:55 am 05:55 Cloudy 39 4.1 37 2.5 89 89 N 7 11 29.74 1007 10 16.0934 0 0
6:15 am 06:15 Cloudy 40 4.2 37 2.5 89 89 NE 7 11 29.74 1007 10 16.0934 0 0
6:35 am 06:35 Cloudy with Light Rain 40 4.5 37 2.5 87 87 ENE 6 9 29.74 1007 10 16.0934 0 0
6:55 am 06:55 Cloudy with Rain 40 4.3 37 2.6 89 89 NE 6 9 29.74 1007 7 11.26538 0.01 0.254
7:15 am 07:15 Cloudy with Rain 40 4.4 37 2.8 89 89 NE 5 7 29.74 1007 10 16.0934 0 0
7:35 am 07:35 Cloudy with Rain 40 4.3 37 3 91 91 N 5 7 29.74 1007 7 11.26538 0.02 0.508
7:55 am 07:55 Cloudy with Light Rain 40 4.3 37 3 91 91 NNE 5 7 29.74 1007 7 11.26538 0.04 1.016
8:15 am 08:15 Cloudy with Light Rain 40 4.3 38 3.1 92 92 N 6 9 29.77 1008 7 11.26538 0.01 0.254
8:35 am 08:35 Mostly Cloudy 39 4.1 37 3 93 93 NNE 6 9 29.8 1009 7 11.26538 0.01 0.254
8:55 am 08:55 Partly Cloudy 39 4.1 37 3 93 93 NNE 5 7 29.8 1009 7 11.26538 0.01 0.254
9:15 am 09:15 Partly Cloudy 40 4.2 38 3.1 93 93 NNW 5 7 29.83 1010 7 11.26538 0 0
9:35 am 09:35 Mostly Cloudy 40 4.7 38 3.5 92 92 NNW 6 9 29.8 1009 7 11.26538 0 0
9:55 am 09:55 Cloudy 41 4.9 38 3.5 91 91 NNW 7 11 29.83 1010 10 16.0934 0 0
10:15 am 10:15 Cloudy 41 5.2 38 3.6 90 90 NNW 6 9 29.83 1010 10 16.0934 0 0
10:35 am 10:35 Cloudy 42 5.5 38 3.6 88 88 NNW 5 7 29.83 1010 10 16.0934 0 0
10:55 am 10:55 Cloudy 43 5.9 39 4 88 88 NW 7 11 29.85 1011 10 16.0934 0 0
11:15 am 11:15 Cloudy 43 6.1 39 3.9 86 86 NW 7 11 29.85 1011 10 16.0934 0 0
11:35 am 11:35 Cloudy 44 6.5 39 4 84 84 NW 8 13 29.85 1011 10 16.0934 0 0
11:55 am 11:55 Cloudy 45 7.1 40 4.3 83 83 NNW 9 15 29.85 1011 10 16.0934 0 0
12:15 pm 12:15 Cloudy 46 7.5 41 4.8 83 83 NW 10 17 29.85 1011 10 16.0934 0 0
12:35 pm 12:35 Cloudy 46 8 41 5 82 82 NNW 10 17 29.85 1011 10 16.0934 0 0
12:55 pm 12:55 Cloudy 48 9.1 42 5.4 78 78 NNW 20 31 29.83 1010 10 16.0934 0 0
1:15 pm 13:15 Cloudy 48 8.7 41 4.8 77 77 NNW 16 26 29.83 1010 10 16.0934 0 0
1:35 pm 13:35 Cloudy 47 8.5 41 4.9 78 78 NNW 15 24 29.83 1010 10 16.0934 0 0
1:55 pm 13:55 Cloudy 47 8.2 41 4.9 80 80 NNW 15 24 29.83 1010 10 16.0934 0 0
2:15 pm 14:15 Cloudy 47 8.4 40 4.6 77 77 NNW 21 33 29.83 1010 10 16.0934 0 0
2:35 pm 14:35 Cloudy 47 8.5 39 3.7 72 72 NNW 24 39 29.85 1011 10 16.0934 0 0
2:55 pm 14:55 Cloudy 47 8.5 38 3.6 72 72 NNW 24 39 29.85 1011 10 16.0934 0 0
3:15 pm 15:15 Cloudy 47 8.2 38 3.6 73 73 NNW 21 33 29.88 1012 10 16.0934 0 0
3:35 pm 15:35 Cloudy 47 8.3 38 3.3 71 71 NNW 21 33 29.88 1012 10 16.0934 0 0
3:55 pm 15:55 Cloudy 47 8.3 38 3.1 70 70 NNW 24 39 29.91 1013 10 16.0934 0 0
4:15 pm 16:15 Cloudy 47 8.2 37 2.8 69 69 N 22 35 29.91 1013 10 16.0934 0 0
4:35 pm 16:35 Cloudy 47 8.1 36 2.4 68 68 N 23 37 29.91 1013 10 16.0934 0 0
4:55 pm 16:55 Cloudy 46 7.8 36 2.3 68 68 NNW 21 33 29.94 1014 10 16.0934 0 0
5:15 pm 17:15 Cloudy 46 7.5 37 2.5 71 71 N 20 31 29.94 1014 10 16.0934 0 0
5:35 pm 17:35 Cloudy 45 7 36 2.3 72 72 NNW 20 31 29.94 1014 10 16.0934 0 0
5:55 pm 17:55 Cloudy 44 6.7 36 2.4 74 74 NNW 18 30 29.97 1015 10 16.0934 0 0
6:15 pm 18:15 Cloudy 44 6.6 36 2.3 74 74 NNW 14 22 29.97 1015 10 16.0934 0 0
6:35 pm 18:35 Cloudy 44 6.5 36 2.4 75 75 NNW 15 24 29.97 1015 10 16.0934 0 0
6:55 pm 18:55 Cloudy 44 6.5 36 2.1 74 74 NNW 15 24 30 1016 10 16.0934 0 0
7:15 pm 19:15 Cloudy 43 6.2 36 2.4 77 77 NNW 15 24 30.03 1017 10 16.0934 0 0
7:35 pm 19:35 Cloudy 43 5.9 37 2.5 79 79 NNW 14 22 30.03 1017 10 16.0934 0 0
7:55 pm 19:55 Cloudy 42 5.6 36 2.2 79 79 NNW 15 24 30.03 1017 10 16.0934 0 0
8:15 pm 20:15 Cloudy 42 5.5 36 2.4 81 81 NNW 16 26 30.03 1017 10 16.0934 0 0
8:35 pm 20:35 Cloudy 42 5.5 37 2.6 82 82 NNW 15 24 30.06 1018 10 16.0934 0 0
8:55 pm 20:55 Cloudy 42 5.5 37 3 84 84 NNW 17 28 30.06 1018 10 16.0934 0 0
9:15 pm 21:15 Cloudy 42 5.5 37 2.8 83 83 NNW 14 22 30.06 1018 10 16.0934 0 0
9:35 pm 21:35 Cloudy with Drizzle 41 4.9 37 3 88 88 NNW 16 26 30.06 1018 4 6.43736 0 0
9:55 pm 21:55 Cloudy 40 4.7 37 2.6 86 86 NNW 16 26 30.09 1019 10 16.0934 0 0
10:15 pm 22:15 Cloudy 40 4.5 37 2.6 88 88 N 15 24 30.09 1019 10 16.0934 0 0
10:35 pm 22:35 Cloudy 40 4.6 37 2.7 88 88 N 14 22 30.09 1019 10 16.0934 0 0
10:55 pm 22:55 Cloudy 40 4.6 37 2.7 88 88 N 16 26 30.09 1019 10 16.0934 0 0
11:15 pm 23:15 Cloudy 40 4.5 37 2.5 87 87 NNW 16 26 30.09 1019 10 16.0934 0 0
11:35 pm 23:35 Cloudy 40 4.5 36 2 84 84 NNW 15 24 30.09 1019 10 16.0934 0 0
11:55 pm 23:55 Cloudy 40 4.5 36 2 84 84 N 14 22 30.09 1019 10 16.0934 0 0

Powered by AerisWeather